This is the latest recevied weather packets stored in our database for station/object PA5MB-15. If no packets are shown the sender has not sent any weather packets the latest 10 day(s).
| Time | Temp. | Humidity | Pressure | Rain* | Wind** | Luminosity | Snow |
|---|---|---|---|---|---|---|---|
| 1777910130 | 19.44° C | 70% | 1013.6 hPa | 0 mm | - | 20 W/m² | - |
| 1777909830 | 19.44° C | 66% | 1013.6 hPa | 0 mm | - | 22 W/m² | - |
| 1777909530 | 19.44° C | 69% | 1013.6 hPa | 0 mm | - | 23 W/m² | - |
| 1777909230 | 18.89° C | 70% | 1013.7 hPa | 0 mm | - | 25 W/m² | - |
| 1777908931 | 18.89° C | 72% | 1013.7 hPa | 0 mm | - | 28 W/m² | - |
| 1777908643 | 18.89° C | 72% | 1013.7 hPa | 0 mm | - | 29 W/m² | - |
| 1777908343 | 18.89° C | 71% | 1013.6 hPa | 0 mm | - | 30 W/m² | - |
| 1777908030 | 18.89° C | 75% | 1013.6 hPa | 0 mm | - | 32 W/m² | - |
| 1777907724 | 18.89° C | 77% | 1013.7 hPa | 0 mm | - | 35 W/m² | - |
| 1777907422 | 18.89° C | 76% | 1013.6 hPa | 0 mm | - | 32 W/m² | - |
| 1777907130 | 18.89° C | 78% | 1013.6 hPa | 0 mm | - | 30 W/m² | - |
| 1777906830 | 18.33° C | 80% | 1013.7 hPa | 0 mm | - | 27 W/m² | - |
| 1777906530 | 18.33° C | 82% | 1013.7 hPa | 0 mm | - | 25 W/m² | - |
| 1777906236 | 18.33° C | 83% | 1013.8 hPa | 0 mm | - | 25 W/m² | - |
| 1777905930 | 18.33° C | 81% | 1013.8 hPa | 0 mm | - | 24 W/m² | - |
| 1777905630 | 18.33° C | 81% | 1013.9 hPa | 0 mm | - | 26 W/m² | - |
| 1777905330 | 18.89° C | 80% | 1013.9 hPa | 0 mm | - | 28 W/m² | - |
| 1777905023 | 18.89° C | 80% | 1014 hPa | 0 mm | - | 30 W/m² | - |
| 1777904731 | 18.33° C | 81% | 1014 hPa | 0 mm | - | 34 W/m² | - |
| 1777904430 | 18.89° C | 81% | 1014 hPa | 0 mm | - | 31 W/m² | - |
| 1777904130 | 18.33° C | 81% | 1014.1 hPa | 0 mm | - | 28 W/m² | - |
| 1777903843 | 18.33° C | 82% | 1014.1 hPa | 0 mm | - | 26 W/m² | - |
| 1777903543 | 17.78° C | 84% | 1014.2 hPa | 0 mm | - | 21 W/m² | - |
| 1777903231 | 17.78° C | 85% | 1014.3 hPa | 0 mm | - | 20 W/m² | - |
| 1777902932 | 17.78° C | 85% | 1014.3 hPa | 0 mm | - | 17 W/m² | - |
* Rain latest hour (hover to see other rain measurements)
** Current wind speed in m/s (hover to see current wind gust speed)